When you browse on this site, cookies collect data to enhance your experience and personalize the content and advertising you see.
Visit our Privacy Policy to learn more. By continuing to use the site, you agree to this use of cookies and data.
EN

Hourly Weather Jirkov

Today, 2 July, Thursday

Time Temperature Precipitation Wind Pressure Humidity
00:00 +18°C° 0.3 mm 2 mps 727 mmHg 88%
01:00 +18°C° 0 mm 2 mps 727 mmHg 90%
02:00 +17°C° 0 mm 2 mps 727 mmHg 91%
03:00 +17°C° 0 mm 2 mps 727 mmHg 92%
04:00 +17°C° 0 mm 2 mps 727 mmHg 93%
05:00 +18°C° 0 mm 2 mps 728 mmHg 90%
06:00 +19°C° 0 mm 2 mps 728 mmHg 87%
07:00 +20°C° 0 mm 2 mps 728 mmHg 85%
08:00 +21°C° 0.2 mm 2 mps 729 mmHg 81%
09:00 +23°C° 0.2 mm 2 mps 729 mmHg 77%
10:00 +24°C° 0.2 mm 2 mps 729 mmHg 73%
11:00 +24°C° 0.8 mm 2 mps 729 mmHg 71%
12:00 +24°C° 0.8 mm 2 mps 729 mmHg 69%
13:00 +25°C° 0.8 mm 2 mps 729 mmHg 68%
14:00 +25°C° 0.8 mm 2 mps 729 mmHg 69%
15:00 +24°C° 0.8 mm 2 mps 728 mmHg 71%
16:00 +24°C° 0.8 mm 2 mps 728 mmHg 73%
17:00 +24°C° 0.6 mm 2 mps 728 mmHg 77%
18:00 +23°C° 0.6 mm 2 mps 728 mmHg 82%
19:00 +21°C° 0.6 mm 2 mps 728 mmHg 86%
20:00 +20°C° 0 mm 2 mps 728 mmHg 87%
21:00 +19°C° 0 mm 2 mps 728 mmHg 88%
22:00 +17°C° 0 mm 3 mps 729 mmHg 89%
23:00 +17°C° 0 mm 3 mps 729 mmHg 90%

Tomorrow, 3 July, Friday

Time Temperature Precipitation Wind Pressure Humidity
00:00 +16°C° 0 mm 3 mps 729 mmHg 91%
01:00 +16°C° 0 mm 3 mps 730 mmHg 92%
02:00 +14°C° 0 mm 3 mps 730 mmHg 92%
03:00 +14°C° 0 mm 3 mps 730 mmHg 93%
04:00 +14°C° 0 mm 2 mps 730 mmHg 94%
05:00 +14°C° 0 mm 3 mps 731 mmHg 89%
06:00 +16°C° 0 mm 3 mps 731 mmHg 85%
07:00 +17°C° 0 mm 3 mps 732 mmHg 81%
08:00 +18°C° 0 mm 3 mps 732 mmHg 74%
09:00 +19°C° 0 mm 3 mps 732 mmHg 68%
10:00 +20°C° 0 mm 3 mps 732 mmHg 62%
11:00 +21°C° 0.1 mm 3 mps 732 mmHg 60%
12:00 +22°C° 0.1 mm 3 mps 732 mmHg 57%
13:00 +22°C° 0.1 mm 3 mps 732 mmHg 55%
14:00 +22°C° 0 mm 3 mps 732 mmHg 55%
15:00 +24°C° 0 mm 3 mps 732 mmHg 54%
16:00 +24°C° 0 mm 3 mps 732 mmHg 54%
17:00 +23°C° 0 mm 2 mps 732 mmHg 60%
18:00 +21°C° 0 mm 2 mps 732 mmHg 66%
19:00 +20°C° 0 mm 2 mps 732 mmHg 72%
20:00 +20°C° 0 mm 1 mps 733 mmHg 76%
21:00 +18°C° 0 mm 1 mps 733 mmHg 80%
22:00 +15°C° 0 mm 1 mps 733 mmHg 84%
23:00 +15°C° 0 mm 1 mps 733 mmHg 85%

Day after tomorrow, 4 July, Saturday

Time Temperature Precipitation Wind Pressure Humidity
00:00 +15°C° 0 mm 1 mps 733 mmHg 85%
01:00 +15°C° 0 mm 1 mps 734 mmHg 85%
02:00 +14°C° 0 mm 1 mps 734 mmHg 85%
03:00 +14°C° 0 mm 1 mps 733 mmHg 85%
04:00 +14°C° 0 mm 1 mps 733 mmHg 85%
05:00 +15°C° 0 mm 1 mps 734 mmHg 80%
06:00 +18°C° 0 mm 1 mps 734 mmHg 75%
07:00 +18°C° 0 mm 2 mps 734 mmHg 70%
08:00 +20°C° 0 mm 2 mps 734 mmHg 66%
09:00 +21°C° 0 mm 2 mps 734 mmHg 61%
10:00 +22°C° 0 mm 3 mps 734 mmHg 56%
11:00 +24°C° 0 mm 3 mps 734 mmHg 54%
12:00 +25°C° 0 mm 3 mps 734 mmHg 52%
13:00 +25°C° 0 mm 3 mps 734 mmHg 49%
14:00 +25°C° 0 mm 3 mps 734 mmHg 50%
15:00 +25°C° 0 mm 3 mps 734 mmHg 50%
16:00 +25°C° 0 mm 3 mps 733 mmHg 51%
17:00 +25°C° 0 mm 3 mps 733 mmHg 58%
18:00 +24°C° 0 mm 2 mps 733 mmHg 65%
19:00 +23°C° 0 mm 2 mps 733 mmHg 72%
20:00 +20°C° 0 mm 2 mps 733 mmHg 76%
21:00 +19°C° 0 mm 2 mps 733 mmHg 79%
22:00 +19°C° 0 mm 1 mps 734 mmHg 83%
23:00 +18°C° 0 mm 2 mps 734 mmHg 82%

5 July, Sunday

Time Temperature Precipitation Wind Pressure Humidity
00:00 +18°C° 0 mm 2 mps 733 mmHg 81%
01:00 +18°C° 0 mm 2 mps 733 mmHg 80%
02:00 +17°C° 0 mm 2 mps 733 mmHg 81%
03:00 +17°C° 0 mm 2 mps 733 mmHg 82%
04:00 +17°C° 0 mm 2 mps 733 mmHg 83%
05:00 +18°C° 0 mm 3 mps 733 mmHg 80%
06:00 +19°C° 0 mm 3 mps 733 mmHg 77%
07:00 +20°C° 0 mm 4 mps 733 mmHg 74%
08:00 +21°C° 0 mm 4 mps 733 mmHg 70%
09:00 +23°C° 0 mm 4 mps 733 mmHg 66%
10:00 +25°C° 0 mm 5 mps 733 mmHg 61%
11:00 +25°C° 0.1 mm 5 mps 733 mmHg 63%
12:00 +24°C° 0.1 mm 6 mps 732 mmHg 64%
13:00 +24°C° 0.1 mm 6 mps 732 mmHg 65%
14:00 +23°C° 0 mm 6 mps 732 mmHg 66%
15:00 +23°C° 0 mm 6 mps 732 mmHg 67%
16:00 +23°C° 0 mm 6 mps 731 mmHg 68%
17:00 +22°C° 0 mm 5 mps 731 mmHg 70%
18:00 +22°C° 0 mm 4 mps 731 mmHg 72%
19:00 +22°C° 0 mm 4 mps 731 mmHg 75%
20:00 +21°C° 0 mm 3 mps 731 mmHg 79%
21:00 +19°C° 0 mm 3 mps 731 mmHg 82%
22:00 +18°C° 0 mm 3 mps 731 mmHg 86%
23:00 +18°C° 0 mm 3 mps 731 mmHg 88%

6 July, Monday

Time Temperature Precipitation Wind Pressure Humidity
00:00 +18°C° 0 mm 3 mps 731 mmHg 89%
01:00 +17°C° 0 mm 3 mps 731 mmHg 90%
02:00 +17°C° 0 mm 3 mps 731 mmHg 91%
03:00 +17°C° 0 mm 3 mps 731 mmHg 92%
04:00 +17°C° 0 mm 3 mps 730 mmHg 93%
05:00 +18°C° 0 mm 3 mps 730 mmHg 88%
06:00 +19°C° 0 mm 4 mps 730 mmHg 84%
07:00 +20°C° 0 mm 4 mps 731 mmHg 79%
08:00 +21°C° 0 mm 4 mps 730 mmHg 75%
09:00 +22°C° 0 mm 5 mps 730 mmHg 72%
10:00 +22°C° 0 mm 5 mps 730 mmHg 69%
11:00 +23°C° 0.1 mm 5 mps 730 mmHg 66%
12:00 +25°C° 0.1 mm 5 mps 730 mmHg 63%
13:00 +26°C° 0.1 mm 5 mps 729 mmHg 60%
14:00 +25°C° 0.1 mm 5 mps 729 mmHg 62%
15:00 +25°C° 0.1 mm 5 mps 729 mmHg 65%
16:00 +23°C° 0.1 mm 5 mps 729 mmHg 67%
17:00 +22°C° 0.1 mm 5 mps 729 mmHg 69%
18:00 +21°C° 0.1 mm 4 mps 729 mmHg 72%
19:00 +20°C° 0.1 mm 3 mps 730 mmHg 74%
20:00 +19°C° 0 mm 3 mps 730 mmHg 77%
21:00 +17°C° 0 mm 2 mps 731 mmHg 80%
22:00 +15°C° 0 mm 2 mps 731 mmHg 83%
23:00 +14°C° 0 mm 2 mps 731 mmHg 83%

7 July, Tuesday

Time Temperature Precipitation Wind Pressure Humidity
00:00 +13°C° 0 mm 2 mps 732 mmHg 83%
01:00 +12°C° 0 mm 2 mps 732 mmHg 83%
02:00 +12°C° 0 mm 2 mps 732 mmHg 84%
03:00 +10°C° 0 mm 2 mps 732 mmHg 86%
04:00 +9°C° 0 mm 2 mps 732 mmHg 87%
05:00 +12°C° 0 mm 2 mps 733 mmHg 82%
06:00 +13°C° 0 mm 2 mps 733 mmHg 76%
07:00 +14°C° 0 mm 2 mps 733 mmHg 71%
08:00 +15°C° 0 mm 2 mps 733 mmHg 66%
09:00 +17°C° 0 mm 3 mps 734 mmHg 60%
10:00 +18°C° 0 mm 3 mps 734 mmHg 55%
11:00 +19°C° 0 mm 3 mps 734 mmHg 53%
12:00 +19°C° 0 mm 4 mps 733 mmHg 51%
13:00 +20°C° 0 mm 4 mps 733 mmHg 50%
14:00 +20°C° 0.1 mm 4 mps 733 mmHg 52%
15:00 +20°C° 0.1 mm 4 mps 734 mmHg 53%
16:00 +19°C° 0.1 mm 4 mps 734 mmHg 55%
17:00 +18°C° 0.1 mm 4 mps 734 mmHg 62%
18:00 +17°C° 0.1 mm 3 mps 734 mmHg 68%
19:00 +16°C° 0.1 mm 3 mps 734 mmHg 75%
20:00 +14°C° 0 mm 3 mps 735 mmHg 77%
21:00 +14°C° 0 mm 2 mps 735 mmHg 79%
22:00 +12°C° 0 mm 2 mps 736 mmHg 82%
23:00 +12°C° 0 mm 2 mps 736 mmHg 84%
Show more